| time (UTC) | temp C | wind direction | speed KPH | gust KPH | rain 1hr cm | rain 24hr cm | rain mn cm | humidity % | barometer mb |
| 20260503204753 | 18 | 39 | 6.4 | 8.0 | 0.00 | 0.00 | 0.00 | 41 | 1015.7 |
| 20260503204251 | 18 | 331 | 8.0 | 11.3 | 0.00 | 0.00 | 0.00 | 41 | 1015.7 |
| 20260503203748 | 17 | 62 | 6.4 | 9.7 | 0.00 | 0.00 | 0.00 | 43 | 1015.7 |
| 20260503203246 | 18 | 49 | 0.0 | 0.0 | 0.00 | 0.00 | 0.00 | 42 | 1016.0 |
| 20260503202743 | 18 | 53 | 1.6 | 3.2 | 0.00 | 0.00 | 0.00 | 43 | 1016.0 |
| 20260503202240 | 18 | 293 | 1.6 | 1.6 | 0.00 | 0.00 | 0.00 | 39 | 1016.0 |
| 20260503201738 | 18 | 23 | 1.6 | 3.2 | 0.00 | 0.00 | 0.00 | 41 | 1016.4 |
| 20260503201230 | 18 | 7 | 4.8 | 8.0 | 0.00 | 0.00 | 0.00 | 40 | 1016.4 |
| 20260503200726 | 18 | 330 | 4.8 | 8.0 | 0.00 | 0.00 | 0.00 | 38 | 1016.4 |
| 20260503200222 | 17 | 27 | 3.2 | 3.2 | 0.00 | 0.00 | 0.00 | 41 | 1016.4 |
| 20260503195719 | 17 | 30 | 6.4 | 9.7 | 0.00 | 0.00 | 0.00 | 40 | 1016.4 |
| 20260503195216 | 17 | 332 | 1.6 | 1.6 | 0.00 | 0.00 | 0.00 | 41 | 1016.4 |
| 20260503194713 | 17 | 307 | 8.0 | 8.0 | 0.00 | 0.00 | 0.00 | 40 | 1016.7 |
| 20260503194209 | 17 | 254 | 4.8 | 4.8 | 0.00 | 0.00 | 0.00 | 39 | 1016.7 |
| 20260503193706 | 17 | 315 | 4.8 | 4.8 | 0.00 | 0.00 | 0.00 | 41 | 1016.7 |
| 20260503193202 | 16 | 66 | 3.2 | 3.2 | 0.00 | 0.00 | 0.00 | 40 | 1016.7 |
| 20260503192657 | 17 | 317 | 8.0 | 9.7 | 0.00 | 0.00 | 0.00 | 39 | 1017.1 |
| 20260503192153 | 17 | 292 | 9.7 | 11.3 | 0.00 | 0.00 | 0.00 | 40 | 1016.7 |
| 20260503191649 | 17 | 313 | 1.6 | 1.6 | 0.00 | 0.00 | 0.00 | 40 | 1017.1 |
| 20260503191147 | 17 | 77 | 4.8 | 4.8 | 0.00 | 0.00 | 0.00 | 42 | 1017.1 |
| 20260503190643 | 17 | 346 | 0.0 | 1.6 | 0.00 | 0.00 | 0.00 | 43 | 1017.1 |
| 20260503190140 | 16 | 81 | 3.2 | 3.2 | 0.00 | 0.00 | 0.00 | 43 | 1017.1 |
| 20260503185637 | 17 | 24 | 6.4 | 8.0 | 0.00 | 0.00 | 0.00 | 38 | 1017.1 |
| 20260503185132 | 17 | 356 | 4.8 | 9.7 | 0.00 | 0.00 | 0.00 | 38 | 1017.5 |
| 20260503184628 | 16 | 27 | 1.6 | 1.6 | 0.00 | 0.00 | 0.00 | 44 | 1017.5 |
| 20260503184124 | 15 | 316 | 4.8 | 8.0 | 0.00 | 0.00 | 0.00 | 39 | 1017.5 |
| 20260503183621 | 16 | 242 | 11.3 | 14.5 | 0.00 | 0.00 | 0.00 | 42 | 1017.5 |
| 20260503183118 | 15 | 278 | 3.2 | 3.2 | 0.00 | 0.00 | 0.00 | 41 | 1017.5 |
| 20260503182616 | 16 | 330 | 0.0 | 1.6 | 0.00 | 0.00 | 0.00 | 38 | 1017.5 |
| 20260503182114 | 15 | 6 | 3.2 | 3.2 | 0.00 | 0.00 | 0.00 | 44 | 1017.5 |
| 20260503181611 | 16 | 244 | 8.0 | 11.3 | 0.00 | 0.00 | 0.00 | 44 | 1017.5 |
| 20260503181108 | 15 | 252 | 4.8 | 8.0 | 0.00 | 0.00 | 0.00 | 42 | 1017.5 |
| 20260503180605 | 16 | 298 | 8.0 | 12.9 | 0.00 | 0.00 | 0.00 | 38 | 1017.8 |
| 20260503180103 | 16 | 273 | 3.2 | 4.8 | 0.00 | 0.00 | 0.00 | 43 | 1017.8 |
| 20260503175559 | 16 | 247 | 3.2 | 8.0 | 0.00 | 0.00 | 0.00 | 42 | 1017.8 |
| 20260503175056 | 16 | 49 | 4.8 | 9.7 | 0.00 | 0.00 | 0.00 | 42 | 1017.8 |
| 20260503174553 | 15 | 47 | 0.0 | 0.0 | 0.00 | 0.00 | 0.00 | 45 | 1017.8 |
| 20260503174050 | 15 | 48 | 6.4 | 8.0 | 0.00 | 0.00 | 0.00 | 42 | 1018.2 |
| 20260503173545 | 15 | 33 | 3.2 | 4.8 | 0.00 | 0.00 | 0.00 | 45 | 1018.2 |
| 20260503173041 | 15 | 357 | 8.0 | 11.3 | 0.00 | 0.00 | 0.00 | 42 | 1018.2 |
| 20260503172539 | 15 | 301 | 6.4 | 9.7 | 0.00 | 0.00 | 0.00 | 44 | 1018.2 |
| 20260503172036 | 14 | 10 | 0.0 | 1.6 | 0.00 | 0.00 | 0.00 | 41 | 1018.5 |
| 20260503171532 | 14 | 23 | 4.8 | 4.8 | 0.00 | 0.00 | 0.00 | 44 | 1018.5 |
| 20260503171030 | 15 | 40 | 3.2 | 4.8 | 0.00 | 0.00 | 0.00 | 45 | 1018.5 |
| 20260503170526 | 13 | 42 | 4.8 | 8.0 | 0.00 | 0.00 | 0.00 | 44 | 1018.5 |
| 20260503150918 | 11 | 300 | 3.2 | 4.8 | 0.00 | 0.00 | 0.00 | 57 | 1019.6 |
| 20260503150415 | 11 | 359 | 3.2 | 3.2 | 0.00 | 0.00 | 0.00 | 56 | 1019.6 |
| 20260503131308 | 8 | 342 | 6.4 | 9.7 | 0.00 | 0.00 | 0.00 | 71 | 1019.3 |
| 20260503130805 | 8 | 303 | 0.0 | 0.0 | 0.00 | 0.00 | 0.00 | 73 | 1019.3 |
| 20260503130303 | 9 | 301 | 0.0 | 1.6 | 0.00 | 0.00 | 0.00 | 71 | 1019.3 |
| 20260503110657 | 0 | 149 | 0.0 | 0.0 | 0.00 | 0.00 | 0.00 | 99 | 1018.5 |
| 20260503110154 | 0 | 149 | 0.0 | 0.0 | 0.00 | 0.00 | 0.00 | 99 | 1018.5 |
| 20260503100120 | 0 | 149 | 0.0 | 0.0 | 0.00 | 0.00 | 0.00 | 99 | 1017.5 |
| 20260503081510 | 1 | 135 | 3.2 | 3.2 | 0.00 | 0.00 | 0.00 | 99 | 1016.7 |
| 20260503081007 | 1 | 148 | 4.8 | 4.8 | 0.00 | 0.00 | 0.00 | 99 | 1016.4 |
| 20260503080503 | 1 | 144 | 0.0 | 0.0 | 0.00 | 0.00 | 0.00 | 99 | 1016.4 |
| 20260503072939 | 0 | 124 | 0.0 | 0.0 | 0.00 | 0.00 | 0.00 | 99 | 1016.0 |
| 20260503072437 | 0 | 124 | 0.0 | 0.0 | 0.00 | 0.00 | 0.00 | 99 | 1016.0 |
| 20260503071934 | 0 | 124 | 0.0 | 0.0 | 0.00 | 0.00 | 0.00 | 99 | 1016.0 |
| 20260503071431 | 1 | 124 | 0.0 | 0.0 | 0.00 | 0.00 | 0.00 | 99 | 1016.0 |
| 20260503070927 | 1 | 124 | 0.0 | 0.0 | 0.00 | 0.00 | 0.00 | 99 | 1016.0 |
| 20260503070424 | 0 | 123 | 0.0 | 0.0 | 0.00 | 0.00 | 0.00 | 99 | 1016.0 |
| 20260503054837 | 1 | 136 | 0.0 | 1.6 | 0.00 | 0.00 | 0.00 | 96 | 1016.0 |
| 20260503054333 | 2 | 137 | 3.2 | 3.2 | 0.00 | 0.00 | 0.00 | 96 | 1016.0 |
| 20260503053832 | 2 | 106 | 0.0 | 0.0 | 0.00 | 0.00 | 0.00 | 95 | 1016.0 |
| 20260503053330 | 2 | 106 | 0.0 | 0.0 | 0.00 | 0.00 | 0.00 | 95 | 1015.7 |
| 20260503052826 | 2 | 86 | 0.0 | 0.0 | 0.00 | 0.00 | 0.00 | 94 | 1016.0 |
| 20260503052323 | 2 | 85 | 1.6 | 1.6 | 0.00 | 0.00 | 0.00 | 94 | 1016.0 |
| 20260503051819 | 2 | 97 | 0.0 | 0.0 | 0.00 | 0.00 | 0.00 | 94 | 1016.0 |
| 20260503051315 | 2 | 156 | 3.2 | 3.2 | 0.00 | 0.00 | 0.00 | 95 | 1016.0 |
| 20260503050812 | 2 | 137 | 3.2 | 3.2 | 0.00 | 0.00 | 0.00 | 94 | 1015.7 |
| 20260503050308 | 2 | 96 | 0.0 | 1.6 | 0.00 | 0.00 | 0.00 | 93 | 1016.0 |
| 20260503045806 | 2 | 90 | 1.6 | 1.6 | 0.00 | 0.00 | 0.00 | 94 | 1016.0 |
| 20260503045305 | 3 | 41 | 3.2 | 3.2 | 0.00 | 0.00 | 0.00 | 92 | 1015.7 |
| 20260503044800 | 3 | 100 | 0.0 | 0.0 | 0.00 | 0.00 | 0.00 | 91 | 1015.7 |
| 20260503044257 | 3 | 99 | 0.0 | 0.0 | 0.00 | 0.00 | 0.00 | 91 | 1016.0 |
| 20260503043755 | 3 | 96 | 0.0 | 1.6 | 0.00 | 0.00 | 0.00 | 90 | 1015.7 |
| 20260503043251 | 3 | 88 | 1.6 | 1.6 | 0.00 | 0.00 | 0.00 | 90 | 1015.7 |
| 20260503042747 | 3 | 147 | 0.0 | 1.6 | 0.00 | 0.00 | 0.00 | 89 | 1015.7 |
| 20260503042244 | 3 | 157 | 1.6 | 3.2 | 0.00 | 0.00 | 0.00 | 90 | 1015.7 |
| 20260503041740 | 3 | 159 | 0.0 | 0.0 | 0.00 | 0.00 | 0.00 | 92 | 1015.7 |
| 20260503041238 | 2 | 159 | 1.6 | 3.2 | 0.00 | 0.00 | 0.00 | 93 | 1015.7 |
| 20260503040735 | 2 | 159 | 0.0 | 0.0 | 0.00 | 0.00 | 0.00 | 93 | 1015.7 |
| 20260503040233 | 3 | 159 | 1.6 | 1.6 | 0.00 | 0.00 | 0.00 | 92 | 1015.2 |
| 20260503035729 | 3 | 159 | 0.0 | 1.6 | 0.00 | 0.00 | 0.00 | 92 | 1015.2 |
| 20260503035227 | 3 | 159 | 3.2 | 3.2 | 0.00 | 0.00 | 0.00 | 93 | 1015.2 |
| 20260503034724 | 3 | 159 | 1.6 | 3.2 | 0.00 | 0.00 | 0.00 | 93 | 1015.2 |
| 20260503034221 | 3 | 159 | 4.8 | 4.8 | 0.00 | 0.00 | 0.00 | 91 | 1014.9 |
| 20260503033718 | 3 | 159 | 0.0 | 1.6 | 0.00 | 0.00 | 0.00 | 89 | 1014.9 |
| 20260503033216 | 3 | 158 | 1.6 | 1.6 | 0.00 | 0.00 | 0.00 | 89 | 1015.2 |
| 20260503032714 | 3 | 159 | 1.6 | 1.6 | 0.00 | 0.00 | 0.00 | 91 | 1014.9 |
| 20260503032212 | 3 | 159 | 1.6 | 1.6 | 0.00 | 0.00 | 0.00 | 89 | 1014.9 |
| 20260503031709 | 4 | 159 | 0.0 | 1.6 | 0.00 | 0.00 | 0.00 | 88 | 1014.9 |
| 20260503031208 | 4 | 158 | 0.0 | 0.0 | 0.00 | 0.00 | 0.00 | 87 | 1014.9 |
| 20260503030703 | 4 | 159 | 1.6 | 3.2 | 0.00 | 0.00 | 0.00 | 86 | 1014.9 |
| 20260503030200 | 4 | 159 | 1.6 | 1.6 | 0.00 | 0.00 | 0.00 | 88 | 1014.9 |
| 20260503025657 | 5 | 159 | 0.0 | 0.0 | 0.00 | 0.00 | 0.00 | 86 | 1014.9 |
| 20260503025154 | 5 | 159 | 1.6 | 3.2 | 0.00 | 0.00 | 0.00 | 84 | 1014.9 |
| 20260503024650 | 5 | 159 | 3.2 | 3.2 | 0.00 | 0.00 | 0.00 | 83 | 1014.9 |
| 20260503024148 | 5 | 159 | 1.6 | 1.6 | 0.00 | 0.00 | 0.00 | 82 | 1014.9 |
| 20260503023645 | 5 | 159 | 3.2 | 3.2 | 0.00 | 0.00 | 0.00 | 80 | 1014.9 |
| 20260503023141 | 6 | 159 | 1.6 | 3.2 | 0.00 | 0.00 | 0.00 | 81 | 1014.6 |
| 20260503022637 | 6 | 159 | 3.2 | 3.2 | 0.00 | 0.00 | 0.00 | 77 | 1014.6 |
| 20260503022132 | 7 | 152 | 3.2 | 3.2 | 0.00 | 0.00 | 0.00 | 73 | 1014.6 |
| 20260503021629 | 8 | 152 | 0.0 | 0.0 | 0.00 | 0.00 | 0.00 | 68 | 1014.6 |
| 20260503021126 | 8 | 131 | 0.0 | 0.0 | 0.00 | 0.00 | 0.00 | 63 | 1014.6 |
| 20260503020623 | 8 | 105 | 0.0 | 0.0 | 0.00 | 0.00 | 0.00 | 62 | 1014.6 |
| 20260503020120 | 8 | 45 | 1.6 | 3.2 | 0.00 | 0.00 | 0.00 | 60 | 1014.2 |
| 20260503015617 | 8 | 22 | 6.4 | 9.7 | 0.00 | 0.00 | 0.00 | 61 | 1014.6 |
| 20260503015114 | 8 | 38 | 4.8 | 8.0 | 0.00 | 0.00 | 0.00 | 59 | 1014.6 |
| 20260503014609 | 9 | 43 | 0.0 | 0.0 | 0.00 | 0.00 | 0.00 | 59 | 1014.2 |
| 20260503014108 | 8 | 86 | 3.2 | 3.2 | 0.00 | 0.00 | 0.00 | 60 | 1014.2 |
| 20260503013605 | 8 | 55 | 3.2 | 4.8 | 0.00 | 0.00 | 0.00 | 60 | 1014.2 |
| 20260503013103 | 9 | 67 | 1.6 | 3.2 | 0.00 | 0.00 | 0.00 | 58 | 1014.2 |
| 20260503012600 | 8 | 89 | 0.0 | 0.0 | 0.00 | 0.00 | 0.00 | 60 | 1014.2 |
| 20260503012056 | 9 | 77 | 1.6 | 1.6 | 0.00 | 0.00 | 0.00 | 59 | 1014.2 |
| 20260503011552 | 9 | 81 | 3.2 | 3.2 | 0.00 | 0.00 | 0.00 | 59 | 1013.8 |
| 20260503011050 | 9 | 102 | 0.0 | 1.6 | 0.00 | 0.00 | 0.00 | 58 | 1013.8 |
| 20260503010546 | 10 | 298 | 0.0 | 0.0 | 0.00 | 0.00 | 0.00 | 57 | 1013.8 |
| 20260503010044 | 10 | 357 | 0.0 | 0.0 | 0.00 | 0.00 | 0.00 | 56 | 1013.8 |
| 20260503005540 | 10 | 31 | 4.8 | 8.0 | 0.00 | 0.00 | 0.00 | 56 | 1013.5 |
| 20260503005038 | 10 | 331 | 3.2 | 8.0 | 0.00 | 0.00 | 0.00 | 54 | 1013.5 |
| 20260503004534 | 10 | 51 | 1.6 | 1.6 | 0.00 | 0.00 | 0.00 | 54 | 1013.5 |
| 20260503004032 | 10 | 252 | 3.2 | 3.2 | 0.00 | 0.00 | 0.00 | 53 | 1013.5 |
| 20260503003529 | 10 | 59 | 4.8 | 4.8 | 0.00 | 0.00 | 0.00 | 54 | 1013.5 |
| 20260503003026 | 10 | 86 | 1.6 | 3.2 | 0.00 | 0.00 | 0.00 | 54 | 1013.5 |
| 20260503002523 | 10 | 38 | 0.0 | 1.6 | 0.00 | 0.00 | 0.00 | 53 | 1013.1 |
| 20260503002020 | 10 | 87 | 1.6 | 1.6 | 0.00 | 0.00 | 0.00 | 55 | 1013.1 |
| 20260503001516 | 11 | 263 | 3.2 | 3.2 | 0.00 | 0.00 | 0.00 | 52 | 1013.1 |
| 20260503001013 | 11 | 221 | 3.2 | 3.2 | 0.00 | 0.00 | 0.00 | 52 | 1012.8 |
| 20260503000510 | 11 | 310 | 0.0 | 1.6 | 0.00 | 0.00 | 0.00 | 50 | 1013.1 |
| 20260503000007 | 11 | 178 | 0.0 | 0.0 | 0.00 | 0.00 | 0.00 | 51 | 1012.8 |
| 20260502235504 | 11 | 326 | 0.0 | 3.2 | 0.00 | 0.00 | 0.00 | 50 | 1012.8 |
| 20260502235002 | 11 | 284 | 11.3 | 12.9 | 0.00 | 0.00 | 0.00 | 49 | 1012.3 |
| 20260502234458 | 12 | 6 | 8.0 | 14.5 | 0.00 | 0.00 | 0.00 | 48 | 1012.8 |
| 20260502233955 | 12 | 34 | 4.8 | 8.0 | 0.00 | 0.00 | 0.00 | 48 | 1012.8 |
| 20260502233456 | 12 | 25 | 1.6 | 1.6 | 0.00 | 0.00 | 0.00 | 48 | 1012.8 |
| 20260502232953 | 12 | 314 | 3.2 | 3.2 | 0.00 | 0.00 | 0.00 | 47 | 1012.3 |
| 20260502232449 | 13 | 41 | 9.7 | 11.3 | 0.00 | 0.00 | 0.00 | 44 | 1012.8 |
| 20260502231946 | 13 | 340 | 8.0 | 11.3 | 0.00 | 0.00 | 0.00 | 45 | 1012.3 |
| 20260502231444 | 13 | 16 | 6.4 | 9.7 | 0.00 | 0.00 | 0.00 | 45 | 1012.3 |
| 20260502230942 | 14 | 329 | 8.0 | 12.9 | 0.00 | 0.00 | 0.00 | 44 | 1012.0 |
| 20260502230439 | 15 | 326 | 3.2 | 3.2 | 0.00 | 0.00 | 0.00 | 43 | 1012.0 |
| 20260502225937 | 14 | 20 | 3.2 | 3.2 | 0.00 | 0.00 | 0.00 | 44 | 1012.0 |
| 20260502225433 | 14 | 10 | 8.0 | 11.3 | 0.00 | 0.00 | 0.00 | 42 | 1012.3 |
| 20260502224930 | 13 | 3 | 4.8 | 4.8 | 0.00 | 0.00 | 0.00 | 45 | 1012.0 |
| 20260502224426 | 13 | 44 | 8.0 | 14.5 | 0.00 | 0.00 | 0.00 | 44 | 1012.3 |
| 20260502223923 | 12 | 133 | 3.2 | 4.8 | 0.00 | 0.00 | 0.00 | 46 | 1012.3 |
| 20260502223421 | 13 | 333 | 1.6 | 3.2 | 0.00 | 0.00 | 0.00 | 46 | 1012.0 |
| 20260502222919 | 13 | 32 | 3.2 | 8.0 | 0.00 | 0.00 | 0.00 | 46 | 1012.0 |
| 20260502222416 | 14 | 357 | 4.8 | 8.0 | 0.00 | 0.00 | 0.00 | 44 | 1012.0 |
| 20260502221911 | 15 | 326 | 8.0 | 11.3 | 0.00 | 0.00 | 0.00 | 43 | 1012.0 |
| 20260502221408 | 15 | 344 | 8.0 | 12.9 | 0.00 | 0.00 | 0.00 | 43 | 1012.0 |
| 20260502220905 | 15 | 354 | 4.8 | 8.0 | 0.00 | 0.00 | 0.00 | 43 | 1012.0 |
| 20260502220401 | 15 | 26 | 4.8 | 8.0 | 0.00 | 0.00 | 0.00 | 43 | 1012.0 |
| 20260502215857 | 15 | 325 | 3.2 | 8.0 | 0.00 | 0.00 | 0.00 | 42 | 1012.0 |
| 20260502215355 | 15 | 19 | 6.4 | 9.7 | 0.00 | 0.00 | 0.00 | 42 | 1011.7 |
| 20260502214852 | 15 | 30 | 1.6 | 3.2 | 0.00 | 0.00 | 0.00 | 44 | 1011.7 |
| 20260502214348 | 15 | 56 | 8.0 | 11.3 | 0.00 | 0.00 | 0.00 | 43 | 1011.7 |
| 20260502213846 | 16 | 11 | 4.8 | 4.8 | 0.00 | 0.00 | 0.00 | 40 | 1011.7 |
| 20260502213343 | 15 | 323 | 6.4 | 9.7 | 0.00 | 0.00 | 0.00 | 41 | 1011.7 |
| 20260502212841 | 15 | 307 | 6.4 | 11.3 | 0.00 | 0.00 | 0.00 | 41 | 1011.3 |
| 20260502212340 | 15 | 36 | 3.2 | 4.8 | 0.00 | 0.00 | 0.00 | 43 | 1011.3 |
| 20260502211837 | 15 | 30 | 3.2 | 8.0 | 0.00 | 0.00 | 0.00 | 45 | 1011.3 |
| 20260502211332 | 15 | 78 | 8.0 | 11.3 | 0.00 | 0.00 | 0.00 | 41 | 1011.3 |
| 20260502210830 | 15 | 19 | 0.0 | 1.6 | 0.00 | 0.00 | 0.00 | 45 | 1011.3 |
| 20260502210327 | 15 | 0 | 1.6 | 3.2 | 0.00 | 0.00 | 0.00 | 44 | 1011.3 |
| 20260502205824 | 16 | 342 | 4.8 | 8.0 | 0.00 | 0.00 | 0.00 | 43 | 1011.3 |
| 20260502205320 | 16 | 324 | 16.1 | 17.7 | 0.00 | 0.00 | 0.00 | 40 | 1011.0 |